Location: Banios
(43.0451°N, 0.2335°E)
Time: 20:45:36
(UTC+00:00)

Cosmos 1513 Rocket - Pass Details

Date: 25 January 2021
Orbit: 939 x 1009 km, 82.9° (Epoch: 01 March)

Event Time Altitude Azimuth Distance (km) Brightness Sun altitude
Rises 04:43:08 0° 187° (S) 3,696 7.5 -28.7°
Reaches altitude 10° 04:45:40 10° 188° (S) 2,743 6.8 -28.3°
Maximum altitude 04:51:58 86° 276° (W) 986 4.3 -27.1°
Drops below altitude 10° 04:58:13 10° 7° (N) 2,712 6.9 -26.0°
Sets 05:00:42 0° 8° (N) 3,653 7.6 -25.5°
